Regional Weather Roundup
Issued by NWS

Home | Current Version | Previous Version | Graphics & Text | Print | Product List | Glossary On
Versions: 1 2 3 4 5 6 7 8 9 10 11 12 13 14 15 16 17 18 19 20 21 22 23 24 25 26 27 28 29 30 31 32 33 34 35 36 37 38 39 40 41 42 43 44 45 46 47 48 49 50
832
ASUS43 KIND 241859
RWRIN

WEATHER ROUNDUP FOR INDIANA
NATIONAL WEATHER SERVICE INDIANAPOLIS IN
300 PM EDT FRI MAR 24 2017

NOTE: "FAIR" INDICATES FEW OR NO CLOUDS BELOW 12,000 FEET WITH NO
SIGNIFICANT WEATHER AND/OR OBSTRUCTIONS TO VISIBILITY.

* - STATION DOES NOT REPORT WEATHER SUCH AS PRECIPITATION OR FOG.

+ - STATION NOT QUALITY CONTROLLED BY THE NATIONAL WEATHER SERVICE.
    USE DATA WITH CAUTION...ESPECIALLY DEWPOINT AND RELATIVE
    HUMIDITY OBSERVATIONS.

INZ001>003-010>013-019-020-242000-
NORTHWEST INDIANA

CITY           SKY/WX    TMP DP  RH WIND       PRES   REMARKS
GARY /AIRPORT/ MOSUNNY   81  41  24 SW20G39   29.92F
MONTICELLO +   MOSUNNY   75  55  49 SW18G32   29.99F

$$

LMZ046-743>745-242000-
SOUTHERN LAKE MICHIGAN

STATION/POSITION TIME  TEMP    WIND        PRES    WAVE
                       AIR SEA DIR/SP/G            HT
                 (UTC) (F)     (DEG/KT/KT) (MB)    (FT)
BURNS HARBOR     1840   73     220/ 18/ 30 1013.9S
MICHIGAN CITY    1830   71     200/ 23/ 26   N/A

$$

INZ004-005-014>016-021>024-242000-
NORTH CENTRAL INDIANA

CITY           SKY/WX    TMP DP  RH WIND       PRES   REMARKS
ELKHART        SUNNY     77  48  36 SW20G28   29.95F
GOSHEN         SUNNY     76  51  41 SW25G35   29.96F
SOUTH BEND     SUNNY     76  49  38 SW25G39   29.95F

$$

INZ006>009-017-018-025>027-242000-
NORTHEAST INDIANA

CITY           SKY/WX    TMP DP  RH WIND       PRES   REMARKS
ANGOLA *+      SUNNY     73  68  83 SW21      29.96F
FORT WAYNE     MOSUNNY   74  56  53 SW29G35   30.01F
KENDALLVILLE + SUNNY     74  54  48 SW22G31   29.98F

$$

INZ028-029-035-036-043>045-051>053-242000-
WEST CENTRAL INDIANA

CITY           SKY/WX    TMP DP  RH WIND       PRES   REMARKS
CRAWFORDSVL +  MOSUNNY   72  56  58 S21G31    30.06F
GREENCASTLE +  CLOUDY    70  54  56 S10G25    30.09F
LAFAYETTE      MOSUNNY   74  57  55 SW22G37   30.01F
TERRE HAUTE    CLOUDY    70  55  59 S24G31    30.07F

$$

INZ030>032-037>040-046>048-054>057-064-065-242000-
CENTRAL INDIANA

CITY           SKY/WX    TMP DP  RH WIND       PRES   REMARKS
CP ATTERBURY + MOSUNNY   73  52  46 SW20G31   30.12S
COLUMBUS       PTSUNNY   73  54  49 SW20G29   30.12F
INDIANAPOLIS   PTSUNNY   72  54  53 SW28G37   30.08F
-EAGLE CREEK   PTSUNNY   74  55  51 SW21G30   30.07F
KOKOMO +       SUNNY     74  57  55 SW29G36   30.04F
SHELBYVILLE    SUNNY     78  55  44 SW22G29   30.10F

$$

INZ033-034-041-042-049-050-058-059-242000-
EAST CENTRAL INDIANA

CITY           SKY/WX    TMP DP  RH WIND       PRES   REMARKS
MUNCIE         MOSUNNY   75  55  49 SW16G30   30.05F
RICHMOND +     MOSUNNY   70  54  56 S20       30.13F HAZE

$$

INZ060-061-067>069-081>083-085>088-242000-
SOUTHWEST INDIANA

CITY           SKY/WX    TMP DP  RH WIND       PRES   REMARKS
EVANSVILLE     CLOUDY    74  55  51 SW28G37   30.13F
HUNTINGBURG *+ CLOUDY    72  57  59 SW20G26   30.15F

$$

INZ062-063-066-070>080-084-089>092-242000-
SOUTH CENTRAL AND SOUTHEAST INDIANA

CITY           SKY/WX    TMP DP  RH WIND       PRES   REMARKS
BLOOMINGTON    CLOUDY    71  54  54 SW21G28   30.12F
MADISON *+     PTSUNNY   73  50  43 S13G25    30.17F
SEYMOUR +      CLOUDY    75  54  46 SW17      30.12F

$$





USA.gov is the U.S. government's official web portal to all federal, state and local government web resources and services.